User: anonymous   Login
Location: Unspecified
(57.6483°N, 3.3184°W)
Time: 09:40:16
(UTC+01:00)
Language:

AIST 2D - Orbit

View from above orbital plane
View from above orbital plane
View from above satellite
View from above satellite

Ground track
Ground track

The orbit data is extracted from the following two-line orbital elements,

1 41465U 16026B   21130.87246545  .00001514  00000-0  45143-4 0  9995
2 41465  97.1126  16.2647 0011989 141.4034 279.7326 15.36102958281668
Epoch (UTC): 10 May 2021 20:56:21
Eccentricity: 0.0011989
inclination: 97.1126°
perigee height: 449 km
apogee height: 466 km
right ascension of ascending node: 16.2647°
argument of perigee: 141.4034°
revolutions per day: 15.36102958
mean anomaly at epoch: 279.7326°
orbit number at epoch: 28166

The dashed part of the orbit path shows where the satellite is in the earth's shadow,  

DLR